Regional Weather Roundup
Issued by NWS

Home | Current Version | Previous Version | Text Only | Print | Product List | Glossary Off
Versions: 1 2 3 4 5 6 7 8 9 10 11 12 13 14 15 16 17 18 19 20 21 22 23 24 25 26 27 28 29 30 31 32 33 34 35 36 37 38 39 40 41 42 43 44 45 46 47 48 49 50

000
ASUS44 KMEG 172200
RWRTN
TENNESSEE HOURLY STATE WEATHER ROUNDUP
NATIONAL WEATHER SERVICE MEMPHIS TN
500 PM CDT WED SEP 17 2014

TNZ002-004-019-021-049-052-054-088>092-172300-
WEST TENNESSEE

CITY           SKY/WX    TMP DP  RH WIND       PRES   REMARKS
MEMPHIS INTL   CLOUDY    75  62  64 N9        29.99R
NWS MEMPHIS      N/A     73 N/A N/A MISG        N/A
JACKSON        CLOUDY    69  60  73 CALM      29.95F
DYERSBURG      CLOUDY    66  54  63 N5        29.98R
UNION CITY     SUNNY     68  57  68 S3        29.96R
PARIS          SUNNY     66  55  68 SE3       29.95F
LEXINGTON      SUNNY     70  57  64 CALM      29.93F
SAVANNAH       SUNNY     72  55  56 W5        29.96R
$$

TNZ008-025-027-028-033-062-065-066-172300-
NORTH MIDDLE TENNESSEE

CITY           SKY/WX    TMP DP  RH WIND       PRES   REMARKS
NASHVILLE      CLOUDY    72  56  57 E5        29.98F
CLARKSVILLE    CLOUDY    71  54  54 SE6       29.94F
COOKEVILLE     SUNNY     72  57  60 NW5       29.99R
CROSSVILLE     PTSUNNY   69  52  54 W6        30.01R
$$

TNZ061-075-076-078-094-096-097-172300-
SOUTH MIDDLE TENNESSEE

CITY           SKY/WX    TMP DP  RH WIND       PRES   REMARKS
FAYETTEVILLE   SUNNY     72  54  53 N7        29.98S
TULLAHOMA      SUNNY     72  54  53 N8        29.99F
WINCHESTER     SUNNY     73  54  49 N7        29.97F
COLUMBIA       SUNNY     72  59  64 SE5       29.95F
SHELBYVILLE    SUNNY     73  57  56 N5        29.99S
$$

TNZ017-018-042-046-047-172300-
NORTHEAST TENNESSEE

CITY           SKY/WX    TMP DP  RH WIND       PRES   REMARKS
TRI CITIES     MOSUNNY   75  53  46 NW8       29.95R
ELIZABETHTON   PTCLDY    73  55  53 VRB6      29.94F
$$

TNZ012-013-036-069-073-074-172300-
CENTRAL EAST TENNESSEE

CITY           SKY/WX    TMP DP  RH WIND       PRES   REMARKS
KNOXVILLE      MOSUNNY   77  50  38 W7        29.94R
OAK RIDGE      PTSUNNY   76  56  49 E3        29.96R
GATLINBURG     CLEAR     75  55  50 NE6       29.94S
$$

TNZ083-085-099-172300-
SOUTHEAST TENNESSEE

CITY           SKY/WX    TMP DP  RH WIND       PRES   REMARKS
CHATTANOOGA    PTSUNNY   78  57  48 N8        29.96R
$$

SKY/WX REPORTED AS FAIR MEANS FEW OR NO CLOUDS BELOW
12 THOUSAND FEET.




USA.gov is the U.S. government's official web portal to all federal, state and local government web resources and services.